Weather History for Pensacola, FL

Change the Weather History Date:

Tuesday, February 26, 2013

  Actual Average Record
Temperature  
Mean Temperature 60 °F 57 °F  
Max Temperature 67 °F 66 °F 82 °F (1972)
Min Temperature 53 °F 48 °F 26 °F (1967)
Degree Days  
Heating Degree Days 5 9  
Month to date heating degree days 189 282  
Since 1 July heating degree days 861 1293  
Cooling Degree Days 0 0  
Month to date cooling degree days 10 0  
Year to date cooling degree days 40 6  
Growing Degree Days 10 (Base 50)    
Moisture  
Dew Point 49 °F    
Average Humidity 65    
Maximum Humidity 81    
Minimum Humidity 49    
Precipitation  
Precipitation 0.22 in 0.18 in 2.01 in (2003)
Month to date precipitation 11.91 4.69  
Year to date precipitation 14.27 9.32  
Snow  
Snow 0.00 in 0.00 in - ()
Month to date snowfall 0.0 0.0  
Since 1 July snowfall 0.0 0.0  
Snow Depth 0.00 in    
Sea Level Pressure  
Sea Level Pressure 29.70 in    
Wind  
Wind Speed 13 mph (WSW)    
Max Wind Speed 24 mph    
Max Gust Speed 32 mph    
Visibility 9 miles    
Events Rain    
T = Trace of Precipitation, MM = Missing Value Source: NWS Daily Summary

Daily Weather History Graph

Daily Weather History Graph

Search for Another Location

Airport:

Trip Planner

Search our weather history database for the weather conditions in past years. The results will help you decide how hot, cold, wet, or windy it might be!

Date:

Astronomy

Feb. 26, 2013 Rise Set
Actual Time 6:17 AM CST 5:45 PM CST
Civil Twilight 5:53 AM CST 6:09 PM CST
Nautical Twilight 5:25 AM CST 6:37 PM CST
Astronomical Twilight 4:58 AM CST 7:05 PM CST
Moon 6:52 PM CST (2/26) 6:27 AM CST (2/26)
Length of Visible Light 12h 16m
Length of Day
11h 27m
Full, 99% of the Moon is Illuminated
Feb 26
Full
Mar 4
Last Quarter
Mar 11
New
Mar 19
First Quarter
Mar 27
Full

Hourly Weather History & Observations

Time (CST) Temp. Dew Point Humidity Pressure Visibility Wind Dir Wind Speed Gust Speed Precip Events Conditions
12:02 AM 66.2 °F 64.4 °F 94% 29.55 in 2.5 mi South 20.7 mph 26.5 mph 0.15 in Rain Heavy Rain
12:10 AM 66.2 °F 66.2 °F 100% 29.55 in 3.0 mi SSW 11.5 mph 26.5 mph 0.21 in Rain Heavy Rain
12:30 AM 66.2 °F 64.4 °F 94% 29.56 in 2.0 mi SSW 12.7 mph - 0.31 in Rain Heavy Rain
12:39 AM 66.2 °F 64.4 °F 94% 29.55 in 7.0 mi SSW 11.5 mph 20.7 mph 0.34 in Rain Light Rain
12:53 AM 66.9 °F 64.9 °F 93% 29.54 in 10.0 mi SW 11.5 mph - 0.34 in   Overcast
1:14 AM 66.2 °F 64.4 °F 94% 29.54 in 10.0 mi West 10.4 mph - N/A   Overcast
1:53 AM 66.0 °F 61.0 °F 84% 29.54 in 10.0 mi West 11.5 mph - N/A   Overcast
2:53 AM 63.0 °F 54.0 °F 72% 29.56 in 10.0 mi WSW 15.0 mph - N/A   Overcast
3:53 AM 60.1 °F 48.9 °F 67% 29.58 in 10.0 mi WSW 15.0 mph 21.9 mph N/A   Mostly Cloudy
4:53 AM 57.9 °F 46.9 °F 67% 29.60 in 10.0 mi WSW 9.2 mph - N/A   Clear
5:53 AM 57.0 °F 46.0 °F 67% 29.62 in 10.0 mi WSW 11.5 mph - N/A   Clear
6:53 AM 57.0 °F 46.0 °F 67% 29.65 in 10.0 mi WSW 11.5 mph - N/A   Clear
7:53 AM 57.0 °F 43.0 °F 59% 29.69 in 10.0 mi WSW 16.1 mph 21.9 mph N/A   Clear
8:53 AM 57.9 °F 44.1 °F 60% 29.71 in 10.0 mi WSW 20.7 mph 26.5 mph N/A   Scattered Clouds
9:53 AM 57.0 °F 42.1 °F 57% 29.73 in 10.0 mi West 13.8 mph 19.6 mph N/A   Partly Cloudy
10:53 AM 59.0 °F 41.0 °F 51% 29.75 in 10.0 mi WSW 18.4 mph - N/A   Clear
11:53 AM 57.9 °F 39.0 °F 49% 29.76 in 10.0 mi WSW 19.6 mph 32.2 mph N/A   Clear
12:53 PM 60.1 °F 41.0 °F 49% 29.74 in 10.0 mi WSW 17.3 mph 26.5 mph N/A   Clear
1:53 PM 60.1 °F 42.1 °F 51% 29.73 in 10.0 mi WSW 13.8 mph 23.0 mph N/A   Clear
2:53 PM 57.9 °F 42.1 °F 56% 29.74 in 10.0 mi WSW 16.1 mph 24.2 mph N/A   Clear
3:53 PM 55.9 °F 41.0 °F 57% 29.75 in 10.0 mi WSW 17.3 mph - N/A   Clear
4:53 PM 55.9 °F 42.1 °F 60% 29.77 in 10.0 mi West 15.0 mph - N/A   Clear
5:53 PM 55.0 °F 42.1 °F 62% 29.80 in 10.0 mi WSW 10.4 mph - N/A   Clear
6:53 PM 55.0 °F 42.1 °F 62% 29.83 in 10.0 mi West 9.2 mph - N/A   Clear
7:53 PM 54.0 °F 43.0 °F 66% 29.86 in 10.0 mi West 8.1 mph - N/A   Clear
8:53 PM 54.0 °F 43.0 °F 66% 29.88 in 10.0 mi West 8.1 mph - N/A   Clear
9:53 PM 54.0 °F 43.0 °F 66% 29.90 in 10.0 mi West 8.1 mph - N/A   Clear
10:53 PM 54.0 °F 43.0 °F 66% 29.91 in 10.0 mi West 8.1 mph - N/A   Clear
11:53 PM 53.1 °F 43.0 °F 69% 29.93 in 10.0 mi WNW 8.1 mph - N/A   Clear